| time (UTC) | temp F | wind direction | speed MPH | gust MPH | rain 1hr in | rain 24hr in | rain mn in | humidity % | barometer mb |
| 20260506214102 | 0 | 66 | 1.0 | 6.0 | 0.00 | 0.00 | 0.00 | 84 | 1011.7 |
| 20260506213602 | 0 | 352 | 2.0 | 2.0 | 0.00 | 0.00 | 0.00 | 84 | 1011.7 |
| 20260506213103 | 0 | 246 | 1.0 | 2.0 | 0.00 | 0.00 | 0.00 | 84 | 1011.6 |
| 20260506212602 | 0 | 243 | 0.0 | 1.0 | 0.00 | 0.00 | 0.00 | 84 | 1011.6 |
| 20260506212102 | 0 | 180 | 1.0 | 1.0 | 0.00 | 0.00 | 0.00 | 83 | 1011.6 |
| 20260506211603 | 0 | 281 | 1.0 | 2.0 | 0.00 | 0.00 | 0.00 | 83 | 1011.7 |
| 20260506211102 | 0 | 261 | 0.0 | 0.0 | 0.00 | 0.00 | 0.00 | 83 | 1011.6 |
| 20260506210603 | 0 | 103 | 1.0 | 2.0 | 0.00 | 0.00 | 0.00 | 83 | 1011.6 |
| 20260506205602 | 0 | 283 | 0.0 | 1.0 | 0.00 | 0.00 | 0.00 | 84 | 1011.3 |
| 20260506205102 | 0 | 331 | 1.0 | 2.0 | 0.00 | 0.00 | 0.00 | 84 | 1011.5 |
| 20260506204602 | 0 | 352 | 0.0 | 4.0 | 0.00 | 0.00 | 0.00 | 84 | 1011.6 |
| 20260506204103 | 0 | 19 | 2.0 | 4.0 | 0.00 | 0.00 | 0.00 | 84 | 1011.6 |
| 20260506203602 | 0 | 324 | 2.0 | 2.0 | 0.00 | 0.00 | 0.00 | 84 | 1011.3 |
| 20260506203103 | 0 | 23 | 0.0 | 2.0 | 0.00 | 0.00 | 0.00 | 84 | 1011.3 |
| 20260506202603 | 0 | 0 | 0.0 | 0.0 | 0.00 | 0.00 | 0.00 | 85 | 1011.5 |
| 20260506202103 | 0 | 311 | 1.0 | 2.0 | 0.00 | 0.00 | 0.00 | 85 | 1011.5 |
| 20260506201603 | 0 | 225 | 1.0 | 2.0 | 0.00 | 0.00 | 0.00 | 85 | 1011.2 |
| 20260506201102 | 0 | 188 | 0.0 | 0.0 | 0.00 | 0.00 | 0.00 | 85 | 1011.2 |
| 20260506200602 | 0 | 353 | 0.0 | 0.0 | 0.00 | 0.00 | 0.00 | 84 | 1011.2 |
| 20260506195603 | 0 | 187 | 0.0 | 1.0 | 0.00 | 0.00 | 0.00 | 84 | 1011.1 |
| 20260506195102 | 0 | 348 | 1.0 | 2.0 | 0.00 | 0.00 | 0.00 | 85 | 1011.0 |
| 20260506194602 | 0 | 270 | 0.0 | 2.0 | 0.00 | 0.00 | 0.00 | 85 | 1011.0 |
| 20260506194102 | 0 | 320 | 0.0 | 2.0 | 0.00 | 0.00 | 0.00 | 85 | 1010.8 |
| 20260506193603 | 0 | 311 | 1.0 | 2.0 | 0.00 | 0.00 | 0.00 | 85 | 1010.7 |
| 20260506193103 | 0 | 279 | 0.0 | 1.0 | 0.00 | 0.00 | 0.00 | 85 | 1010.7 |
| 20260506192602 | 0 | 180 | 0.0 | 0.0 | 0.00 | 0.00 | 0.00 | 84 | 1010.6 |
| 20260506192102 | 0 | 261 | 0.0 | 0.0 | 0.00 | 0.00 | 0.00 | 83 | 1010.3 |
| 20260506191602 | 0 | 270 | 0.0 | 1.0 | 0.00 | 0.00 | 0.00 | 83 | 1010.5 |
| 20260506191102 | 0 | 99 | 0.0 | 2.0 | 0.00 | 0.00 | 0.00 | 81 | 1010.5 |
| 20260506190603 | 0 | 120 | 1.0 | 2.0 | 0.00 | 0.00 | 0.00 | 81 | 1010.2 |
| 20260506185602 | 0 | 180 | 1.0 | 1.0 | 0.00 | 0.00 | 0.00 | 81 | 1010.2 |
| 20260506185103 | 0 | 180 | 2.0 | 4.0 | 0.00 | 0.00 | 0.00 | 81 | 1010.1 |
| 20260506184602 | 0 | 102 | 1.0 | 2.0 | 0.00 | 0.00 | 0.00 | 81 | 1010.1 |
| 20260506184103 | 0 | 177 | 2.0 | 3.0 | 0.00 | 0.00 | 0.00 | 81 | 1009.8 |
| 20260506183603 | 0 | 180 | 1.0 | 2.0 | 0.00 | 0.00 | 0.00 | 80 | 1010.1 |
| 20260506183102 | 0 | 180 | 0.0 | 1.0 | 0.00 | 0.00 | 0.00 | 80 | 1010.0 |
| 20260506182602 | 0 | 180 | 0.0 | 2.0 | 0.00 | 0.00 | 0.00 | 79 | 1010.0 |
| 20260506182103 | 0 | 159 | 2.0 | 3.0 | 0.00 | 0.00 | 0.00 | 79 | 1009.8 |
| 20260506181603 | 0 | 110 | 3.0 | 6.0 | 0.00 | 0.00 | 0.00 | 79 | 1009.7 |
| 20260506181102 | 0 | 148 | 1.0 | 5.0 | 0.00 | 0.00 | 0.00 | 79 | 1009.7 |
| 20260506180602 | 0 | 168 | 2.0 | 4.0 | 0.00 | 0.00 | 0.00 | 79 | 1009.7 |
| 20260506180103 | 0 | 192 | 2.0 | 5.0 | 0.00 | 0.00 | 0.00 | 79 | 1009.8 |
| 20260506175603 | 0 | 184 | 6.0 | 6.0 | 0.00 | 0.00 | 0.00 | 78 | 1009.6 |
| 20260506175103 | 0 | 172 | 5.0 | 6.0 | 0.00 | 0.00 | 0.00 | 78 | 1009.7 |
| 20260506174602 | 0 | 164 | 5.0 | 10.0 | 0.00 | 0.00 | 0.00 | 78 | 1009.6 |
| 20260506174104 | 0 | 170 | 4.0 | 10.0 | 0.00 | 0.00 | 0.00 | 77 | 1009.6 |
| 20260506173603 | 0 | 127 | 4.0 | 8.0 | 0.00 | 0.00 | 0.00 | 76 | 1009.3 |
| 20260506173103 | 0 | 118 | 7.0 | 9.0 | 0.00 | 0.00 | 0.00 | 76 | 1009.5 |
| 20260506172603 | 0 | 133 | 5.0 | 12.0 | 0.00 | 0.00 | 0.00 | 76 | 1009.5 |
| 20260506172102 | 0 | 172 | 6.0 | 8.0 | 0.00 | 0.00 | 0.00 | 77 | 1009.3 |
| 20260506171602 | 0 | 105 | 3.0 | 6.0 | 0.00 | 0.00 | 0.00 | 77 | 1009.2 |
| 20260506171102 | 0 | 155 | 5.0 | 5.0 | 0.00 | 0.00 | 0.00 | 77 | 1009.5 |
| 20260506170603 | 0 | 149 | 3.0 | 5.0 | 0.00 | 0.00 | 0.00 | 77 | 1009.3 |
| 20260506170103 | 0 | 191 | 2.0 | 7.0 | 0.00 | 0.00 | 0.00 | 76 | 1009.2 |
| 20260506165603 | 0 | 179 | 5.0 | 9.0 | 0.00 | 0.00 | 0.00 | 76 | 1009.2 |
| 20260506165102 | 0 | 153 | 4.0 | 7.0 | 0.00 | 0.00 | 0.00 | 77 | 1009.2 |
| 20260506164603 | 0 | 122 | 2.0 | 10.0 | 0.00 | 0.00 | 0.00 | 77 | 1009.3 |
| 20260506164102 | 0 | 142 | 6.0 | 8.0 | 0.00 | 0.00 | 0.00 | 77 | 1009.2 |
| 20260506163603 | 0 | 123 | 3.0 | 11.0 | 0.00 | 0.00 | 0.00 | 78 | 1009.2 |
| 20260506163102 | 0 | 159 | 11.0 | 12.0 | 0.00 | 0.00 | 0.00 | 76 | 1009.2 |
| 20260506162603 | 0 | 160 | 8.0 | 11.0 | 0.00 | 0.00 | 0.00 | 76 | 1009.2 |
| 20260506162103 | 0 | 176 | 5.0 | 13.0 | 0.00 | 0.00 | 0.00 | 77 | 1009.2 |
| 20260506161602 | 0 | 220 | 5.0 | 11.0 | 0.00 | 0.00 | 0.00 | 78 | 1009.2 |
| 20260506161102 | 0 | 180 | 9.0 | 12.0 | 0.00 | 0.00 | 0.00 | 79 | 1009.2 |
| 20260506160602 | 0 | 147 | 6.0 | 12.0 | 0.00 | 0.00 | 0.00 | 79 | 1009.2 |
| 20260506155602 | 0 | 175 | 4.0 | 7.0 | 0.00 | 0.00 | 0.00 | 77 | 1009.1 |
| 20260506155102 | 0 | 125 | 5.0 | 10.0 | 0.00 | 0.00 | 0.00 | 78 | 1009.0 |
| 20260506154603 | 0 | 170 | 3.0 | 9.0 | 0.00 | 0.00 | 0.00 | 78 | 1009.0 |
| 20260506154103 | 0 | 158 | 3.0 | 8.0 | 0.00 | 0.00 | 0.00 | 79 | 1009.3 |
| 20260506153603 | 0 | 142 | 2.0 | 4.0 | 0.00 | 0.00 | 0.00 | 80 | 1009.1 |
| 20260506153104 | 0 | 203 | 5.0 | 10.0 | 0.00 | 0.00 | 0.00 | 79 | 1009.2 |
| 20260506152602 | 0 | 129 | 4.0 | 9.0 | 0.00 | 0.00 | 0.00 | 78 | 1009.2 |
| 20260506152103 | 0 | 197 | 4.0 | 6.0 | 0.00 | 0.00 | 0.00 | 77 | 1009.0 |
| 20260506151602 | 0 | 165 | 2.0 | 6.0 | 0.00 | 0.00 | 0.00 | 76 | 1009.0 |
| 20260506151103 | 0 | 135 | 4.0 | 8.0 | 0.00 | 0.00 | 0.00 | 74 | 1009.0 |
| 20260506150602 | 0 | 165 | 7.0 | 12.0 | 0.00 | 0.00 | 0.00 | 74 | 1009.1 |
| 20260506145602 | 0 | 131 | 7.0 | 14.0 | 0.00 | 0.00 | 0.00 | 74 | 1009.0 |
| 20260506145103 | 0 | 135 | 9.0 | 14.0 | 0.00 | 0.00 | 0.00 | 76 | 1009.0 |
| 20260506144602 | 0 | 129 | 9.0 | 9.0 | 0.00 | 0.00 | 0.00 | 74 | 1008.7 |
| 20260506144103 | 0 | 109 | 6.0 | 11.0 | 0.00 | 0.00 | 0.00 | 73 | 1008.8 |
| 20260506143605 | 0 | 116 | 2.0 | 11.0 | 0.00 | 0.00 | 0.00 | 74 | 1008.7 |
| 20260506143102 | 0 | 199 | 2.0 | 4.0 | 0.00 | 0.00 | 0.00 | 74 | 1009.0 |
| 20260506142603 | 0 | 125 | 2.0 | 10.0 | 0.00 | 0.00 | 0.00 | 76 | 1009.0 |
| 20260506142102 | 0 | 124 | 4.0 | 11.0 | 0.00 | 0.00 | 0.00 | 76 | 1008.7 |
| 20260506141604 | 0 | 160 | 5.0 | 9.0 | 0.00 | 0.00 | 0.00 | 76 | 1009.1 |
| 20260506141102 | 0 | 161 | 2.0 | 14.0 | 0.00 | 0.00 | 0.00 | 76 | 1008.8 |
| 20260506140603 | 0 | 179 | 4.0 | 14.0 | 0.00 | 0.00 | 0.00 | 76 | 1009.0 |
| 20260506140103 | 0 | 143 | 3.0 | 9.0 | 0.00 | 0.00 | 0.00 | 76 | 1008.8 |
| 20260506135603 | 0 | 128 | 8.0 | 13.0 | 0.00 | 0.00 | 0.00 | 76 | 1009.1 |
| 20260506135103 | 0 | 178 | 6.0 | 12.0 | 0.00 | 0.00 | 0.00 | 77 | 1009.1 |
| 20260506134603 | 0 | 139 | 5.0 | 12.0 | 0.00 | 0.00 | 0.00 | 79 | 1009.2 |
| 20260506134103 | 0 | 155 | 13.0 | 14.0 | 0.00 | 0.00 | 0.00 | 79 | 1008.7 |
| 20260506133602 | 0 | 153 | 9.0 | 17.0 | 0.00 | 0.00 | 0.00 | 80 | 1008.8 |
| 20260506133102 | 0 | 148 | 3.0 | 8.0 | 0.00 | 0.00 | 0.00 | 79 | 1009.0 |
| 20260506132603 | 0 | 164 | 8.0 | 13.0 | 0.00 | 0.00 | 0.00 | 79 | 1009.1 |
| 20260506132103 | 0 | 183 | 7.0 | 15.0 | 0.00 | 0.00 | 0.00 | 80 | 1009.0 |
| 20260506131603 | 0 | 127 | 8.0 | 13.0 | 0.00 | 0.00 | 0.00 | 81 | 1009.3 |
| 20260506131102 | 0 | 134 | 6.0 | 15.0 | 0.00 | 0.00 | 0.00 | 81 | 1009.2 |
| 20260506130602 | 0 | 130 | 11.0 | 13.0 | 0.00 | 0.00 | 0.00 | 81 | 1009.2 |
| 20260506130103 | 0 | 141 | 7.0 | 14.0 | 0.00 | 0.00 | 0.00 | 81 | 1009.2 |
| 20260506125602 | 0 | 155 | 11.0 | 15.0 | 0.00 | 0.00 | 0.00 | 80 | 1009.2 |
| 20260506125102 | 0 | 229 | 4.0 | 10.0 | 0.00 | 0.00 | 0.00 | 80 | 1009.0 |
| 20260506124603 | 0 | 128 | 7.0 | 19.0 | 0.00 | 0.00 | 0.00 | 80 | 1009.5 |
| 20260506124102 | 0 | 133 | 13.0 | 15.0 | 0.00 | 0.00 | 0.00 | 79 | 1009.2 |
| 20260506123603 | 0 | 102 | 8.0 | 9.0 | 0.00 | 0.00 | 0.00 | 79 | 1009.2 |
| 20260506123103 | 0 | 137 | 7.0 | 12.0 | 0.00 | 0.00 | 0.00 | 79 | 1009.2 |
| 20260506122603 | 0 | 207 | 6.0 | 11.0 | 0.00 | 0.00 | 0.00 | 79 | 1009.2 |
| 20260506122103 | 0 | 158 | 4.0 | 9.0 | 0.00 | 0.00 | 0.00 | 77 | 1009.2 |
| 20260506121603 | 0 | 134 | 6.0 | 8.0 | 0.00 | 0.00 | 0.00 | 77 | 1009.2 |
| 20260506121103 | 0 | 191 | 6.0 | 10.0 | 0.00 | 0.00 | 0.00 | 75 | 1009.2 |
| 20260506120603 | 0 | 120 | 5.0 | 10.0 | 0.00 | 0.00 | 0.00 | 75 | 1009.2 |
| 20260506115603 | 0 | 127 | 8.0 | 19.0 | 0.00 | 0.00 | 0.00 | 77 | 1009.0 |
| 20260506115103 | 0 | 121 | 7.0 | 13.0 | 0.00 | 0.00 | 0.00 | 77 | 1009.2 |
| 20260506114603 | 0 | 164 | 3.0 | 13.0 | 0.00 | 0.00 | 0.00 | 78 | 1009.1 |
| 20260506114103 | 0 | 117 | 9.0 | 13.0 | 0.00 | 0.00 | 0.00 | 78 | 1009.0 |
| 20260506113603 | 0 | 127 | 5.0 | 14.0 | 0.00 | 0.00 | 0.00 | 78 | 1009.2 |
| 20260506113103 | 0 | 148 | 9.0 | 11.0 | 0.00 | 0.00 | 0.00 | 77 | 1009.2 |
| 20260506112603 | 0 | 117 | 4.0 | 11.0 | 0.00 | 0.00 | 0.00 | 77 | 1009.0 |
| 20260506112102 | 0 | 135 | 4.0 | 13.0 | 0.00 | 0.00 | 0.00 | 78 | 1009.0 |
| 20260506111603 | 0 | 114 | 9.0 | 11.0 | 0.00 | 0.00 | 0.00 | 79 | 1009.0 |
| 20260506111103 | 0 | 148 | 7.0 | 12.0 | 0.00 | 0.00 | 0.00 | 80 | 1009.1 |
| 20260506110603 | 0 | 136 | 9.0 | 11.0 | 0.00 | 0.00 | 0.00 | 81 | 1009.2 |
| 20260506105603 | 0 | 116 | 2.0 | 5.0 | 0.00 | 0.00 | 0.00 | 81 | 1009.2 |
| 20260506105104 | 0 | 135 | 2.0 | 7.0 | 0.00 | 0.00 | 0.00 | 81 | 1009.2 |
| 20260506104602 | 0 | 121 | 7.0 | 13.0 | 0.00 | 0.00 | 0.00 | 81 | 1009.1 |
| 20260506104102 | 0 | 134 | 3.0 | 8.0 | 0.00 | 0.00 | 0.00 | 82 | 1009.2 |
| 20260506103602 | 0 | 189 | 0.0 | 5.0 | 0.00 | 0.00 | 0.00 | 81 | 1009.1 |
| 20260506103102 | 0 | 197 | 2.0 | 8.0 | 0.00 | 0.00 | 0.00 | 82 | 1009.2 |
| 20260506102602 | 0 | 113 | 5.0 | 12.0 | 0.00 | 0.00 | 0.00 | 81 | 1009.1 |
| 20260506102103 | 0 | 159 | 1.0 | 6.0 | 0.00 | 0.00 | 0.00 | 81 | 1009.1 |
| 20260506101604 | 0 | 151 | 5.0 | 9.0 | 0.00 | 0.00 | 0.00 | 82 | 1008.7 |
| 20260506101102 | 0 | 129 | 4.0 | 7.0 | 0.00 | 0.00 | 0.00 | 82 | 1008.8 |
| 20260506100602 | 0 | 138 | 2.0 | 5.0 | 0.00 | 0.00 | 0.00 | 83 | 1008.7 |
| 20260506095602 | 0 | 158 | 2.0 | 4.0 | 0.00 | 0.00 | 0.00 | 85 | 1008.6 |
| 20260506095103 | 0 | 278 | 3.0 | 7.0 | 0.00 | 0.00 | 0.00 | 85 | 1008.6 |
| 20260506094603 | 0 | 135 | 5.0 | 10.0 | 0.00 | 0.00 | 0.00 | 86 | 1008.2 |
| 20260506094102 | 0 | 187 | 9.0 | 20.0 | 0.00 | 0.00 | 0.00 | 85 | 1008.2 |
| 20260506093603 | 0 | 136 | 8.0 | 22.0 | 0.00 | 0.00 | 0.00 | 85 | 1008.3 |
| 20260506093102 | 0 | 127 | 9.0 | 23.0 | 0.00 | 0.00 | 0.00 | 85 | 1008.2 |
| 20260506092602 | 0 | 142 | 8.0 | 15.0 | 0.00 | 0.00 | 0.00 | 86 | 1008.5 |
| 20260506092104 | 0 | 201 | 2.0 | 21.0 | 0.00 | 0.00 | 0.00 | 87 | 1008.5 |
| 20260506091603 | 0 | 108 | 10.0 | 12.0 | 0.00 | 0.00 | 0.00 | 89 | 1008.1 |
| 20260506091102 | 0 | 108 | 10.0 | 12.0 | 0.00 | 0.00 | 0.00 | 89 | 1008.1 |
| 20260506090602 | 0 | 108 | 10.0 | 12.0 | 0.00 | 0.00 | 0.00 | 89 | 1008.1 |
| 20260506085602 | 0 | 138 | 8.0 | 15.0 | 0.00 | 0.00 | 0.00 | 89 | 1008.2 |
| 20260506085104 | 0 | 148 | 3.0 | 16.0 | 0.00 | 0.00 | 0.00 | 90 | 1008.2 |
| 20260506084602 | 0 | 126 | 7.0 | 17.0 | 0.00 | 0.00 | 0.00 | 90 | 1008.1 |
| 20260506084102 | 0 | 190 | 5.0 | 10.0 | 0.00 | 0.00 | 0.00 | 89 | 1008.2 |
| 20260506083603 | 0 | 161 | 10.0 | 15.0 | 0.00 | 0.00 | 0.00 | 88 | 1008.1 |
| 20260506083102 | 0 | 157 | 5.0 | 16.0 | 0.00 | 0.00 | 0.00 | 88 | 1007.8 |
| 20260506082602 | 0 | 163 | 12.0 | 23.0 | 0.00 | 0.00 | 0.00 | 88 | 1007.7 |
| 20260506082103 | 0 | 149 | 10.0 | 22.0 | 0.00 | 0.00 | 0.00 | 89 | 1007.6 |
| 20260506081603 | 0 | 145 | 6.0 | 14.0 | 0.00 | 0.00 | 0.00 | 89 | 1007.5 |
| 20260506081103 | 0 | 165 | 4.0 | 7.0 | 0.00 | 0.00 | 0.00 | 89 | 1007.7 |
| 20260506080603 | 0 | 163 | 4.0 | 11.0 | 0.00 | 0.00 | 0.00 | 89 | 1007.7 |
| 20260506073102 | 0 | 146 | 3.0 | 15.0 | 0.00 | 0.00 | 0.00 | 91 | 1007.8 |
| 20260506072606 | 0 | 159 | 6.0 | 19.0 | 0.00 | 0.00 | 0.00 | 91 | 1007.8 |
| 20260506072103 | 0 | 142 | 7.0 | 25.0 | 0.00 | 0.00 | 0.00 | 91 | 1007.7 |
| 20260506071602 | 0 | 163 | 6.0 | 19.0 | 0.00 | 0.00 | 0.00 | 92 | 1007.5 |
| 20260506071103 | 0 | 132 | 9.0 | 15.0 | 0.00 | 0.00 | 0.00 | 92 | 1007.7 |
| 20260506070604 | 0 | 139 | 11.0 | 17.0 | 0.00 | 0.00 | 0.00 | 93 | 1007.7 |
| 20260506062103 | 0 | 194 | 0.0 | 3.0 | 0.00 | 0.00 | 0.00 | 95 | 1007.5 |
| 20260506061602 | 0 | 14 | 2.0 | 5.0 | 0.00 | 0.00 | 0.00 | 94 | 1007.2 |
| 20260506061102 | 0 | 336 | 1.0 | 2.0 | 0.00 | 0.00 | 0.00 | 94 | 1007.7 |
| 20260506060603 | 0 | 0 | 1.0 | 4.0 | 0.00 | 0.00 | 0.00 | 94 | 1007.5 |
| 20260506051102 | 0 | 322 | 4.0 | 6.0 | 0.00 | 0.00 | 0.00 | 94 | 1007.7 |
| 20260506050603 | 0 | 320 | 1.0 | 3.0 | 0.00 | 0.00 | 0.00 | 94 | 1007.8 |
| 20260506050104 | 0 | 352 | 8.0 | 8.0 | 0.00 | 0.00 | 0.00 | 94 | 1007.8 |
| 20260506045102 | 0 | 14 | 2.0 | 3.0 | 0.00 | 0.00 | 0.00 | 94 | 1008.1 |
| 20260506044603 | 0 | 266 | 4.0 | 6.0 | 0.00 | 0.00 | 0.00 | 94 | 1008.0 |
| 20260506044102 | 0 | 220 | 6.0 | 6.0 | 0.00 | 0.00 | 0.00 | 94 | 1008.1 |
| 20260506043603 | 0 | 354 | 9.0 | 17.0 | 0.00 | 0.00 | 0.00 | 94 | 1007.3 |
| 20260506043102 | 0 | 315 | 4.0 | 9.0 | 0.00 | 0.00 | 0.00 | 94 | 1007.8 |
| 20260506042603 | 0 | 281 | 2.0 | 4.0 | 0.00 | 0.00 | 0.00 | 94 | 1008.7 |
| 20260506042102 | 0 | 281 | 1.0 | 4.0 | 0.00 | 0.00 | 0.00 | 94 | 1008.2 |
| 20260506041603 | 0 | 311 | 1.0 | 5.0 | 0.00 | 0.00 | 0.00 | 94 | 1007.8 |
| 20260506041103 | 0 | 14 | 2.0 | 4.0 | 0.00 | 0.00 | 0.00 | 94 | 1008.1 |
| 20260506040603 | 0 | 327 | 3.0 | 5.0 | 0.00 | 0.00 | 0.00 | 94 | 1008.2 |
| 20260506035603 | 0 | 326 | 2.0 | 3.0 | 0.00 | 0.00 | 0.00 | 94 | 1008.5 |
| 20260506035103 | 0 | 70 | 3.0 | 4.0 | 0.00 | 0.00 | 0.00 | 94 | 1008.6 |
| 20260506034603 | 0 | 320 | 3.0 | 3.0 | 0.00 | 0.00 | 0.00 | 94 | 1008.8 |
| 20260506034102 | 0 | 255 | 0.0 | 2.0 | 0.00 | 0.00 | 0.00 | 94 | 1008.3 |
| 20260506033602 | 0 | 313 | 2.0 | 3.0 | 0.00 | 0.00 | 0.00 | 94 | 1008.5 |
| 20260506033102 | 0 | 331 | 3.0 | 5.0 | 0.00 | 0.00 | 0.00 | 94 | 1008.6 |
| 20260506032603 | 0 | 350 | 2.0 | 6.0 | 0.00 | 0.00 | 0.00 | 94 | 1008.5 |
| 20260506032102 | 0 | 0 | 0.0 | 2.0 | 0.00 | 0.00 | 0.00 | 94 | 1008.6 |
| 20260506031602 | 0 | 313 | 4.0 | 7.0 | 0.00 | 0.00 | 0.00 | 94 | 1008.5 |
| 20260506031103 | 0 | 285 | 4.0 | 6.0 | 0.00 | 0.00 | 0.00 | 94 | 1008.2 |
| 20260506030603 | 0 | 323 | 6.0 | 8.0 | 0.00 | 0.00 | 0.00 | 94 | 1008.3 |
| 20260506030103 | 0 | 312 | 3.0 | 10.0 | 0.00 | 0.00 | 0.00 | 94 | 1008.3 |
| 20260506025603 | 0 | 340 | 6.0 | 12.0 | 0.00 | 0.00 | 0.00 | 94 | 1008.7 |
| 20260506025102 | 0 | 251 | 2.0 | 13.0 | 0.00 | 0.00 | 0.00 | 94 | 1008.7 |
| 20260506024604 | 0 | 254 | 1.0 | 7.0 | 0.00 | 0.00 | 0.00 | 94 | 1008.2 |
| 20260506024102 | 0 | 337 | 6.0 | 9.0 | 0.00 | 0.00 | 0.00 | 94 | 1008.2 |
| 20260506023603 | 0 | 353 | 3.0 | 7.0 | 0.00 | 0.00 | 0.00 | 93 | 1007.7 |
| 20260506023102 | 0 | 17 | 3.0 | 4.0 | 0.00 | 0.00 | 0.00 | 93 | 1007.8 |
| 20260506022607 | 0 | 345 | 0.0 | 6.0 | 0.00 | 0.00 | 0.00 | 93 | 1007.8 |
| 20260506022102 | 0 | 335 | 5.0 | 6.0 | 0.00 | 0.00 | 0.00 | 93 | 1008.3 |
| 20260506021603 | 0 | 332 | 2.0 | 5.0 | 0.00 | 0.00 | 0.00 | 93 | 1008.2 |
| 20260506021103 | 0 | 23 | 1.0 | 5.0 | 0.00 | 0.00 | 0.00 | 93 | 1008.6 |
| 20260506020603 | 0 | 357 | 2.0 | 5.0 | 0.00 | 0.00 | 0.00 | 93 | 1008.7 |
| 20260506020104 | 0 | 0 | 2.0 | 3.0 | 0.00 | 0.00 | 0.00 | 93 | 1008.7 |
| 20260506015603 | 0 | 358 | 6.0 | 6.0 | 0.00 | 0.00 | 0.00 | 93 | 1008.6 |
| 20260506015103 | 0 | 297 | 0.0 | 1.0 | 0.00 | 0.00 | 0.00 | 93 | 1009.0 |
| 20260506014603 | 0 | 5 | 1.0 | 5.0 | 0.00 | 0.00 | 0.00 | 93 | 1008.8 |
| 20260506014103 | 0 | 345 | 0.0 | 6.0 | 0.00 | 0.00 | 0.00 | 93 | 1008.8 |
| 20260506013602 | 0 | 23 | 1.0 | 4.0 | 0.00 | 0.00 | 0.00 | 93 | 1008.7 |
| 20260506013104 | 0 | 356 | 1.0 | 3.0 | 0.00 | 0.00 | 0.00 | 93 | 1008.8 |
| 20260506012603 | 0 | 180 | 0.0 | 0.0 | 0.00 | 0.00 | 0.00 | 93 | 1009.2 |
| 20260506012103 | 0 | 300 | 1.0 | 3.0 | 0.00 | 0.00 | 0.00 | 93 | 1008.8 |
| 20260506011603 | 0 | 0 | 0.0 | 1.0 | 0.00 | 0.00 | 0.00 | 92 | 1009.2 |
| 20260506011103 | 0 | 0 | 3.0 | 6.0 | 0.00 | 0.00 | 0.00 | 92 | 1009.2 |
| 20260506010603 | 0 | 5 | 1.0 | 3.0 | 0.00 | 0.00 | 0.00 | 92 | 1009.5 |
| 20260506010103 | 0 | 350 | 4.0 | 8.0 | 0.00 | 0.00 | 0.00 | 92 | 1009.3 |
| 20260506005603 | 0 | 20 | 3.0 | 7.0 | 0.00 | 0.00 | 0.00 | 92 | 1009.3 |
| 20260506005104 | 0 | 23 | 0.0 | 3.0 | 0.00 | 0.00 | 0.00 | 92 | 1009.3 |
| 20260506004604 | 0 | 285 | 1.0 | 2.0 | 0.00 | 0.00 | 0.00 | 92 | 1009.3 |
| 20260506004102 | 0 | 323 | 4.0 | 5.0 | 0.00 | 0.00 | 0.00 | 91 | 1009.7 |
| 20260506003604 | 0 | 350 | 4.0 | 4.0 | 0.00 | 0.00 | 0.00 | 91 | 1009.7 |
| 20260506003103 | 0 | 354 | 0.0 | 3.0 | 0.00 | 0.00 | 0.00 | 91 | 1009.8 |
| 20260506002602 | 0 | 351 | 3.0 | 4.0 | 0.00 | 0.00 | 0.00 | 91 | 1009.8 |
| 20260506002102 | 0 | 15 | 0.0 | 3.0 | 0.00 | 0.00 | 0.00 | 90 | 1009.7 |
| 20260506001602 | 0 | 0 | 0.0 | 3.0 | 0.00 | 0.00 | 0.00 | 90 | 1009.7 |
| 20260506001103 | 0 | 261 | 0.0 | 1.0 | 0.00 | 0.00 | 0.00 | 89 | 1010.0 |
| 20260506000602 | 0 | 261 | 0.0 | 2.0 | 0.00 | 0.00 | 0.00 | 89 | 1009.6 |
| 20260505235602 | 0 | 33 | 5.0 | 5.0 | 0.00 | 0.00 | 0.00 | 89 | 1009.7 |
| 20260505235103 | 0 | 0 | 3.0 | 8.0 | 0.00 | 0.00 | 0.00 | 89 | 1009.8 |
| 20260505234603 | 0 | 18 | 3.0 | 6.0 | 0.00 | 0.00 | 0.00 | 88 | 1010.0 |
| 20260505234102 | 0 | 348 | 1.0 | 2.0 | 0.00 | 0.00 | 0.00 | 88 | 1010.0 |
| 20260505233603 | 0 | 332 | 2.0 | 3.0 | 0.00 | 0.00 | 0.00 | 88 | 1010.2 |
| 20260505233103 | 0 | 0 | 1.0 | 2.0 | 0.00 | 0.00 | 0.00 | 87 | 1010.2 |
| 20260505232603 | 0 | 0 | 0.0 | 4.0 | 0.00 | 0.00 | 0.00 | 87 | 1010.3 |
| 20260505232102 | 0 | 343 | 4.0 | 5.0 | 0.00 | 0.00 | 0.00 | 87 | 1010.5 |
| 20260505231602 | 0 | 352 | 6.0 | 8.0 | 0.00 | 0.00 | 0.00 | 86 | 1010.7 |
| 20260505231103 | 0 | 351 | 2.0 | 8.0 | 0.00 | 0.00 | 0.00 | 86 | 1010.7 |
| 20260505230602 | 0 | 351 | 3.0 | 7.0 | 0.00 | 0.00 | 0.00 | 86 | 1010.8 |
| 20260505225603 | 0 | 323 | 2.0 | 8.0 | 0.00 | 0.00 | 0.00 | 87 | 1010.8 |
| 20260505225103 | 0 | 352 | 4.0 | 7.0 | 0.00 | 0.00 | 0.00 | 87 | 1010.8 |
| 20260505224602 | 0 | 315 | 2.0 | 4.0 | 0.00 | 0.00 | 0.00 | 87 | 1011.1 |
| 20260505224103 | 0 | 0 | 2.0 | 5.0 | 0.00 | 0.00 | 0.00 | 87 | 1011.2 |
| 20260505223603 | 0 | 6 | 2.0 | 4.0 | 0.00 | 0.00 | 0.00 | 87 | 1011.2 |
| 20260505223103 | 0 | 262 | 0.0 | 1.0 | 0.00 | 0.00 | 0.00 | 87 | 1011.3 |
| 20260505222603 | 0 | 66 | 0.0 | 2.0 | 0.00 | 0.00 | 0.00 | 87 | 1011.2 |
| 20260505222103 | 0 | 339 | 2.0 | 3.0 | 0.00 | 0.00 | 0.00 | 87 | 1011.2 |
| 20260505221602 | 0 | 353 | 4.0 | 6.0 | 0.00 | 0.00 | 0.00 | 87 | 1011.6 |
| 20260505221102 | 0 | 23 | 5.0 | 6.0 | 0.00 | 0.00 | 0.00 | 87 | 1011.2 |
| 20260505220603 | 0 | 330 | 0.0 | 6.0 | 0.00 | 0.00 | 0.00 | 87 | 1011.2 |
| 20260505220103 | 0 | 59 | 1.0 | 6.0 | 0.00 | 0.00 | 0.00 | 87 | 1011.1 |
| 20260505215603 | 0 | 357 | 2.0 | 6.0 | 0.00 | 0.00 | 0.00 | 87 | 1011.2 |
| 20260505215102 | 0 | 14 | 1.0 | 4.0 | 0.00 | 0.00 | 0.00 | 87 | 1011.2 |
| 20260505214602 | 0 | 354 | 2.0 | 3.0 | 0.00 | 0.00 | 0.00 | 88 | 1011.3 |